Regional Weather Roundup
Issued by NWS

Home | Current Version | Previous Version | Graphics & Text | Print | Product List | Glossary Off
Versions: 1 2 3 4 5 6 7 8 9 10 11 12 13 14 15 16 17 18 19 20 21 22 23 24 25 26 27 28 29 30 31 32 33 34 35 36 37 38 39 40 41 42 43 44 45 46 47 48 49 50

000
ASUS43 KMPX 270010
RWRMN
WEATHER ROUNDUP FOR MINNESOTA
NATIONAL WEATHER SERVICE TWIN CITIES/CHANHASSEN MN
700 PM CDT TUE AUG 26 2014


NOTE: "FAIR" INDICATES FEW OR NO CLOUDS BELOW 12,000 FEET WITH NO
SIGNIFICANT WEATHER AND/OR OBSTRUCTIONS TO VISIBILITY. N/A MEANS
CURRENT SKY AND/OR WEATHER CONDITIONS ARE NOT AVAILABLE.

MNZ060>063-068>070-270100-
   Twin Cities Metro

CITY           SKY/WX    TMP DP  RH WIND       PRES   REMARKS
TWIN CITIES    MOCLDY    72  51  47 NW6       30.14R
6HR MIN TEMP:  68; 6HR MAX TEMP:  76;

ST PAUL        PTCLDY    72  51  47 NE3       30.13S
CRYSTAL        MOCLDY    72  51  47 NW7       30.13S
BLAINE         PTCLDY    72  54  53 NW3       30.14S
LAKEVILLE      PTCLDY    66  55  68 W5        30.14S
EDEN PRAIRIE   MOCLDY    71  53  52 SW6       30.13S
6HR MIN TEMP:  69; 6HR MAX TEMP:  75;

SOUTH ST PAUL  PTCLDY    73  49  43 W3        30.13S
LAKE ELMO      FAIR      70  54  56 N3        30.15S
$$
MNZ001>005-007-008-013>017-022>024-027-028-270100-
   Northwest Minnesota

CITY           SKY/WX    TMP DP  RH WIND       PRES   REMARKS
BEMIDJI        MOSUNNY   60  48  64 CALM      30.16S
HALLOCK        MOSUNNY   64  50  59 NE5       30.12F
ROSEAU         PTSUNNY   61  48  63 NW3       30.15F
WARROAD        PTSUNNY   59  50  72 NW5       30.16F
THIEF RVR FALL CLOUDY    63  48  59 CALM      30.14F
CROOKSTON      CLOUDY    64  52  63 CALM      30.14F
FOSSTON        PTSUNNY   59  48  67 CALM      30.16S
DETROIT LAKES  LGT RAIN  63  50  63 CALM      30.17F
MOORHEAD       CLOUDY    66  54  63 CALM      30.15S
PARK RAPIDS    CLOUDY    63  50  62 NW7       30.16S
MAHNOMEN       CLOUDY    62  52  71 CALM      30.16S
$$
MNZ006-009>011-018-025>026-270100-
   North Central Minnesota

CITY           SKY/WX    TMP DP  RH WIND       PRES   REMARKS
BAUDETTE         N/A     56  46  69 VRB5      30.16S
FLAG ISLAND    MOSUNNY   57  46  67 W9        30.14R
INTL FALLS     CLOUDY    56  48  74 W3        30.15S
6HR MIN TEMP:  56; 6HR MAX TEMP:  62;

WASKISH        MOSUNNY   57  48  72 CALM      30.16F
BIG FORK       CLOUDY    57  48  72 W3        30.18R
LONGVILLE      MOSUNNY   61  52  72 CALM      30.16S
GRAND RAPIDS   PTSUNNY   61  46  59 W6        30.17R
CRANE LAKE     CLOUDY    57  48  72 CALM      30.16R
ORR            CLOUDY    59  46  63 NW8       30.13R
COOK           CLOUDY    61  50  67 W6        30.15S
WALKER         FAIR      60  50  70 CALM      30.15S
$$
MNZ012-019>021-037-270100-
   Northeast Minnesota

CITY           SKY/WX    TMP DP  RH WIND       PRES   REMARKS
DULUTH         MOCLDY    63  50  62 NW7       30.14R
6HR MIN TEMP:  63; 6HR MAX TEMP:  69;

ELY            CLOUDY    59  48  67 NW6       30.13R
HIBBING        CLOUDY    61  48  62 W7        30.16R
EVELETH        MOCLDY    59  46  63 W9        30.16R
DULUTH HARBOR  MOCLDY    68  52  56 NW13      30.13S
TWO HARBORS    MOCLDY    63  48  59 CALM      30.12R
SILVER BAY     MOCLDY    61  54  77 CALM      30.11R
GRAND MARAIS     N/A     63  49  60 CALM      30.10R
G MARAIS ARPRT CLOUDY    55  45  67 W8        30.12S
$$
MNZ029>031-032-039>041-046>048-054>057-064-270100-
   West Central Minnesota

CITY           SKY/WX    TMP DP  RH WIND       PRES   REMARKS
FERGUS FALLS   PTSUNNY   64  50  59 CALM      30.16S
WHEATON        PTSUNNY   61  54  77 S5        30.19F
MORRIS         LGT RAIN  63  55  77 CALM      30.17F
ALEXANDRIA     CLOUDY    64  54  69 W5        30.19S
ELBOW LAKE     FAIR      64  56  76 W3        30.17S
WADENA         MOSUNNY   63  52  67 NW3       30.17S
GLENWOOD       LGT RAIN  61  57  88 W3        30.18F
APPLETON       CLOUDY    64  55  72 N5        30.16F
BENSON         LGT RAIN  63  55  77 CALM      30.17F
ORTONVILLE     LGT RAIN  63  55  77 NE6       30.16F
MADISON        PTSUNNY   66  59  77 NE5       30.16F
WILLMAR        FAIR      66  55  68 NW6       30.18F
$$
MNZ033>034-036-042>043-049>051-058-059-270100-
   Central Minnesota

CITY           SKY/WX    TMP DP  RH WIND       PRES   REMARKS
ST CLOUD       PTSUNNY   69  53  56 NW7       30.16R
6HR MIN TEMP:  69; 6HR MAX TEMP:  74;

SAUK CENTRE    FAIR      64  53  69 W3        30.18S
PAYNESVILLE    HVY RAIN  63  53  71 NW3       30.17F
AITKIN         MOSUNNY   63  54  72 CALM      30.15S
PINE RIVER     MOSUNNY   63  52  67 NW3       30.20R
BRAINERD       MOSUNNY   62  51  67 N6        30.17R
STAPLES        PTSUNNY   63  52  67 CALM      30.17S
LONG PRAIRIE   FAIR      63  54  72 SW5       30.17S
LITTLE FALLS   PTSUNNY   64  52  63 CALM      30.17R
LITCHFIELD     PTSUNNY   70  55  60 NW6       30.17S
BUFFALO        PTSUNNY   69  53  57 W3        30.16S
MAPLE LAKE     PTSUNNY   68  57  68 NW6       30.16S
$$
MNZ037-044-045-052-053-270100-
   East Central Minnesota

CITY           SKY/WX    TMP DP  RH WIND       PRES   REMARKS
PRINCETON      PTSUNNY   68  55  64 NW3       30.15S
MORA           MOCLDY    64  54  68 N3        30.17S
CAMBRIDGE      MOCLDY    70  55  60 W3        30.13S
RUSH CITY      MOCLDY    65  54  66 N3        30.14F
MOOSE LAKE     MOCLDY    64  52  63 N6        30.13S
HINCKLEY       FAIR      64  54  68 CALM      30.14F
CLOQUET        PTCLDY    63  50  63 NW7       30.15S
MCGREGOR       MOCLDY    61  52  72 NW5       30.16S
$$
MNZ071>073-080-081-089-090-097-098-270100-
   Southwest Minnesota

CITY           SKY/WX    TMP DP  RH WIND       PRES   REMARKS
MONTEVIDEO     PTSUNNY   64  57  77 NE5       30.17F
GRANITE FALLS  PTSUNNY   68  56  65 N5        30.17F
CANBY          MOSUNNY   66  56  68 NE5       30.16F
MARSHALL       MOSUNNY   68  55  64 NE6       30.14F
REDWOOD FALLS  MOSUNNY   72  55  55 N6        30.15S
OLIVIA         PTSUNNY   70  55  60 NW7       30.16S
PIPESTONE      MOSUNNY   70  54  56 SE3       30.15F
WINDOM         PTSUNNY   68  55  64 NE5       30.16S
WORTHINGTON    PTSUNNY   70  55  60 NE6       30.16F
JACKSON        MOSUNNY   68  54  60 NE3       30.16S
TRACY          MOSUNNY   70  57  63 CALM      30.16F
SLAYTON        PTSUNNY   66  55  66 CALM      30.16F
$$
MNZ065>067-074>077-082>085-091>093-270100-
   South Central Minnesota

CITY           SKY/WX    TMP DP  RH WIND       PRES   REMARKS
MANKATO        MOSUNNY   70  52  52 NW5       30.15S
NEW ULM        MOSUNNY   70  55  60 CALM      30.15F
ST JAMES       MOSUNNY   73  54  49 CALM      30.16F
FAIRMONT       MOSUNNY   64  54  68 NE5       30.15S
GLENCOE        MOSUNNY   71  54  54 SW6       30.14S
FARIBAULT      PTCLDY    70  54  56 CALM      30.15S
OWATONNA       MOCLDY    70  54  56 CALM      30.15F
WASECA         PTCLDY    64  50  59 NW5       30.16S
ALBERT LEA     MOCLDY    70  57  64 N3        30.15F
$$
MNZ078>079-086>088-094>096-270100-
   Southeast Minnesota

CITY           SKY/WX    TMP DP  RH WIND       PRES   REMARKS
ROCHESTER      MOCLDY    68  55  63 N6        30.16S
6HR MIN TEMP:  67; 6HR MAX TEMP:  73;

RED WING       MOCLDY    72  52  49 CALM      30.12F
STANTON        MOCLDY    71  52  52 CALM      30.13S
DODGE CENTER   MOCLDY    66  57  72 N3        30.16S
WINONA         MOCLDY    70  54  56 NW5       30.14S
AUSTIN         MOCLDY    68  55  64 N3        30.15S
PRESTON        PTCLDY    67  62  82 CALM      30.16S
$$
ABBREVIATIONS USED IN REMARKS
   TC - TEMPERATURES IN CELSIUS
  WCI - WIND CHILL INDEX
   HX - HEAT INDEX
  VSB - VISIBILITY
$$


USA.gov is the U.S. government's official web portal to all federal, state and local government web resources and services.